When you browse on this site, cookies collect data to enhance your experience and personalize the content and advertising you see.
Visit our Privacy Policy to learn more. By continuing to use the site, you agree to this use of cookies and data.
  • In Spain
  • List of Countries
  • For 7 days
  • Water Temperature
  • Weather Map
  • Weather Widgets
  • user-avatar
    Login

    Hourly Weather Liverpool

    Today, 23 September, Monday

    Time Temperature Precipitation Wind Pressure Humidity
    00:00 +13°C° 0 mm 3 mps 752 mmHg 92%
    01:00 +13°C° 0 mm 3 mps 752 mmHg 92%
    02:00 +13°C° 0 mm 3 mps 752 mmHg 92%
    03:00 +12°C° 0 mm 3 mps 752 mmHg 92%
    04:00 +12°C° 0 mm 3 mps 752 mmHg 91%
    05:00 +12°C° 0 mm 3 mps 753 mmHg 89%
    06:00 +12°C° 0 mm 3 mps 753 mmHg 88%
    07:00 +13°C° 0 mm 3 mps 754 mmHg 84%
    08:00 +14°C° 0 mm 3 mps 754 mmHg 81%
    09:00 +15°C° 0 mm 4 mps 754 mmHg 77%
    10:00 +17°C° 0 mm 4 mps 754 mmHg 72%
    11:00 +18°C° 0 mm 4 mps 754 mmHg 67%
    12:00 +19°C° 0 mm 5 mps 754 mmHg 62%
    13:00 +19°C° 0 mm 5 mps 754 mmHg 63%
    14:00 +19°C° 0 mm 6 mps 753 mmHg 65%
    15:00 +19°C° 0 mm 6 mps 753 mmHg 66%
    16:00 +17°C° 0.5 mm 7 mps 752 mmHg 73%
    17:00 +16°C° 0.5 mm 8 mps 752 mmHg 80%
    18:00 +15°C° 0.5 mm 8 mps 751 mmHg 87%
    19:00 +15°C° 0.1 mm 8 mps 751 mmHg 88%
    20:00 +15°C° 0.1 mm 7 mps 751 mmHg 89%
    21:00 +15°C° 0.1 mm 7 mps 751 mmHg 89%
    22:00 +15°C° 0.3 mm 6 mps 751 mmHg 90%
    23:00 +15°C° 0.3 mm 6 mps 751 mmHg 91%

    Tomorrow, 24 September, Tuesday

    Time Temperature Precipitation Wind Pressure Humidity
    00:00 +15°C° 0.3 mm 6 mps 751 mmHg 92%
    01:00 +15°C° 0.3 mm 6 mps 750 mmHg 93%
    02:00 +15°C° 0.3 mm 5 mps 750 mmHg 93%
    03:00 +15°C° 0.3 mm 5 mps 749 mmHg 94%
    04:00 +15°C° 0.8 mm 5 mps 749 mmHg 94%
    05:00 +16°C° 0.8 mm 5 mps 748 mmHg 93%
    06:00 +17°C° 0.8 mm 4 mps 747 mmHg 93%
    07:00 +16°C° 1 mm 5 mps 747 mmHg 91%
    08:00 +16°C° 1 mm 5 mps 747 mmHg 90%
    09:00 +17°C° 1 mm 5 mps 746 mmHg 88%
    10:00 +16°C° 3 mm 5 mps 746 mmHg 90%
    11:00 +17°C° 3 mm 4 mps 746 mmHg 91%
    12:00 +15°C° 3 mm 4 mps 746 mmHg 93%
    13:00 +17°C° 1.9 mm 4 mps 746 mmHg 89%
    14:00 +17°C° 1.9 mm 4 mps 746 mmHg 86%
    15:00 +17°C° 1.9 mm 4 mps 746 mmHg 82%
    16:00 +15°C° 0 mm 4 mps 746 mmHg 82%
    17:00 +16°C° 0 mm 3 mps 746 mmHg 82%
    18:00 +14°C° 0 mm 3 mps 746 mmHg 82%
    19:00 +14°C° 0 mm 3 mps 746 mmHg 83%
    20:00 +14°C° 0 mm 3 mps 746 mmHg 84%
    21:00 +14°C° 0 mm 4 mps 746 mmHg 85%
    22:00 +14°C° 0.1 mm 4 mps 746 mmHg 86%
    23:00 +14°C° 0.1 mm 4 mps 746 mmHg 88%

    Day after tomorrow, 25 September, Wednesday

    Time Temperature Precipitation Wind Pressure Humidity
    00:00 +14°C° 0.1 mm 5 mps 745 mmHg 90%
    01:00 +13°C° 0.1 mm 4 mps 745 mmHg 91%
    02:00 +13°C° 0.1 mm 4 mps 745 mmHg 92%
    03:00 +13°C° 0.1 mm 3 mps 745 mmHg 93%
    04:00 +13°C° 0 mm 3 mps 745 mmHg 93%
    05:00 +14°C° 0 mm 2 mps 745 mmHg 93%
    06:00 +14°C° 0 mm 1 mps 745 mmHg 93%
    07:00 +15°C° 0 mm 1 mps 746 mmHg 90%
    08:00 +15°C° 0 mm 1 mps 746 mmHg 87%
    09:00 +16°C° 0 mm 1 mps 747 mmHg 84%
    10:00 +18°C° 0 mm 1 mps 747 mmHg 81%
    11:00 +18°C° 0 mm 2 mps 748 mmHg 78%
    12:00 +18°C° 0 mm 2 mps 748 mmHg 75%
    13:00 +18°C° 0.1 mm 3 mps 748 mmHg 77%
    14:00 +18°C° 0.1 mm 3 mps 748 mmHg 79%
    15:00 +18°C° 0.1 mm 4 mps 748 mmHg 81%
    16:00 +17°C° 0 mm 3 mps 748 mmHg 82%
    17:00 +16°C° 0 mm 2 mps 748 mmHg 84%
    18:00 +15°C° 0 mm 2 mps 748 mmHg 85%
    19:00 +15°C° 0.3 mm 2 mps 748 mmHg 87%
    20:00 +14°C° 0.3 mm 3 mps 748 mmHg 88%
    21:00 +14°C° 0.3 mm 4 mps 747 mmHg 90%
    22:00 +14°C° 1.8 mm 5 mps 747 mmHg 91%
    23:00 +15°C° 1.8 mm 5 mps 746 mmHg 92%

    26 September, Thursday

    Time Temperature Precipitation Wind Pressure Humidity
    00:00 +16°C° 1.8 mm 6 mps 746 mmHg 92%
    01:00 +15°C° 0.3 mm 5 mps 746 mmHg 92%
    02:00 +15°C° 0.3 mm 4 mps 746 mmHg 92%
    03:00 +16°C° 0.3 mm 3 mps 746 mmHg 92%
    04:00 +14°C° 0.1 mm 4 mps 746 mmHg 90%
    05:00 +14°C° 0.1 mm 5 mps 746 mmHg 88%
    06:00 +14°C° 0.1 mm 7 mps 746 mmHg 86%
    07:00 +14°C° 0.1 mm 7 mps 746 mmHg 82%
    08:00 +14°C° 0.1 mm 7 mps 747 mmHg 79%
    09:00 +15°C° 0.1 mm 6 mps 747 mmHg 75%
    10:00 +15°C° 0 mm 6 mps 747 mmHg 72%
    11:00 +16°C° 0 mm 6 mps 747 mmHg 70%
    12:00 +16°C° 0 mm 6 mps 748 mmHg 67%
    13:00 +16°C° 0.2 mm 6 mps 747 mmHg 67%
    14:00 +17°C° 0.2 mm 7 mps 747 mmHg 67%
    15:00 +17°C° 0.2 mm 7 mps 747 mmHg 66%
    16:00 +16°C° 0.3 mm 7 mps 747 mmHg 70%
    17:00 +15°C° 0.3 mm 7 mps 747 mmHg 74%
    18:00 +14°C° 0.3 mm 7 mps 747 mmHg 77%
    19:00 +14°C° 0.1 mm 7 mps 748 mmHg 78%
    20:00 +12°C° 0.1 mm 7 mps 748 mmHg 78%
    21:00 +13°C° 0.1 mm 6 mps 749 mmHg 79%
    22:00 +13°C° 0 mm 6 mps 749 mmHg 80%
    23:00 +13°C° 0 mm 5 mps 749 mmHg 80%

    27 September, Friday

    Time Temperature Precipitation Wind Pressure Humidity
    00:00 +13°C° 0 mm 5 mps 749 mmHg 81%
    01:00 +12°C° 0.1 mm 5 mps 748 mmHg 82%
    02:00 +12°C° 0.1 mm 5 mps 748 mmHg 82%
    03:00 +12°C° 0.1 mm 5 mps 748 mmHg 83%
    04:00 +12°C° 0.1 mm 5 mps 748 mmHg 83%
    05:00 +12°C° 0.1 mm 5 mps 748 mmHg 83%
    06:00 +11°C° 0.1 mm 6 mps 748 mmHg 83%
    07:00 +13°C° 0.1 mm 6 mps 747 mmHg 80%
    08:00 +14°C° 0.1 mm 7 mps 747 mmHg 77%
    09:00 +14°C° 0.1 mm 7 mps 747 mmHg 74%
    10:00 +13°C° 0.7 mm 8 mps 747 mmHg 77%
    11:00 +13°C° 0.7 mm 8 mps 746 mmHg 80%
    12:00 +12°C° 0.7 mm 9 mps 746 mmHg 83%
    13:00 +13°C° 0.5 mm 9 mps 746 mmHg 81%
    14:00 +13°C° 0.5 mm 9 mps 746 mmHg 78%
    15:00 +15°C° 0.5 mm 9 mps 746 mmHg 75%
    16:00 +13°C° 0.4 mm 8 mps 746 mmHg 77%
    17:00 +14°C° 0.4 mm 7 mps 746 mmHg 78%
    18:00 +13°C° 0.4 mm 6 mps 746 mmHg 80%
    19:00 +11°C° 0.1 mm 6 mps 747 mmHg 81%
    20:00 +11°C° 0.1 mm 6 mps 747 mmHg 82%
    21:00 +10°C° 0.1 mm 6 mps 748 mmHg 82%
    22:00 +10°C° 0.1 mm 7 mps 748 mmHg 83%
    23:00 +10°C° 0.1 mm 7 mps 748 mmHg 83%

    28 September, Saturday

    Time Temperature Precipitation Wind Pressure Humidity
    00:00 +10°C° 0.1 mm 7 mps 748 mmHg 83%
    01:00 +10°C° 0.1 mm 7 mps 748 mmHg 84%
    02:00 +10°C° 0.1 mm 7 mps 748 mmHg 84%
    03:00 +10°C° 0.1 mm 7 mps 749 mmHg 84%
    04:00 +10°C° 0.1 mm 7 mps 749 mmHg 84%
    05:00 +10°C° 0.1 mm 7 mps 749 mmHg 83%
    06:00 +10°C° 0.1 mm 7 mps 749 mmHg 83%
    07:00 +10°C° 0.1 mm 7 mps 750 mmHg 80%
    08:00 +11°C° 0.1 mm 7 mps 750 mmHg 77%
    09:00 +12°C° 0.1 mm 7 mps 750 mmHg 74%
    10:00 +14°C° 0.1 mm 7 mps 750 mmHg 70%
    11:00 +14°C° 0.1 mm 7 mps 751 mmHg 66%
    12:00 +15°C° 0.1 mm 7 mps 751 mmHg 63%
    13:00 +15°C° 0 mm 7 mps 751 mmHg 63%
    14:00 +15°C° 0 mm 6 mps 751 mmHg 63%
    15:00 +15°C° 0 mm 6 mps 751 mmHg 63%
    16:00 +14°C° 0 mm 5 mps 751 mmHg 69%
    17:00 +13°C° 0 mm 5 mps 751 mmHg 74%
    18:00 +12°C° 0 mm 4 mps 751 mmHg 79%
    19:00 +11°C° 0 mm 4 mps 752 mmHg 82%
    20:00 +11°C° 0 mm 3 mps 752 mmHg 84%
    21:00 +11°C° 0 mm 3 mps 752 mmHg 87%
    22:00 +10°C° 0 mm 3 mps 752 mmHg 87%
    23:00 +10°C° 0 mm 3 mps 752 mmHg 88%
    Show more